Regional Weather Roundup
Issued by NWS Portland, ME

Current Version | Previous Version | Text Only | Print | Product List | Glossary On
Versions: 1 2 3 4 5 6 7 8 9 10 11 12 13 14 15 16 17 18 19 20 21 22 23 24 25 26 27 28 29 30 31 32 33 34 35 36 37 38 39 40 41 42 43 44 45 46 47 48 49 50
000
ASUS41 KGYX 222105
RWRGYX
WEATHER ROUNDUP FOR MAINE AND NEW HAMPSHIRE
NATIONAL WEATHER SERVICE GRAY ME
500 PM EDT FRI AUG 22 2014

MEZ002-005-006-010-012-015-018-020-021-024-026-027-029-222200-
MAINE

CITY           SKY/WX    TMP DP  RH WIND       PRES   REMARKS
PORTLAND       CLOUDY    63  56  78 E7        30.13F
SANFORD        PTSUNNY   66  55  68 NE6       30.13S
BAR HARBOR     PTSUNNY   68  57  68 SE5       30.13R
WISCASSET      CLOUDY    68  56  65 SE7       30.14S
ROCKLAND       MOSUNNY   66  59  77 E6        30.12S
FRYEBURG       CLOUDY    69  61  75 VRB3      30.13R
LEWISTONAUBURN CLOUDY    64  57  77 S6        30.14R
AUGUSTA        CLOUDY    70  60  70 S8        30.12S
WATERVILLE     CLOUDY    70  57  64 CALM      30.08S
BANGOR         PTSUNNY   71  56  58 NE8       30.13S
GREENVILLE       N/A     66  54  65 E5        30.15S
MILLINOCKET    CLOUDY    71  54  54 E8        30.16S
HOULTON        CLOUDY    67  58  72 CALM      30.14F
PRESQUE ISLE   MOSUNNY   70  55  60 W3        30.15S
FRENCHVILLE    PTSUNNY   68  54  60 CALM      30.17S
CARIBOU        CLOUDY    71  56  58 S5        30.15S
$$

NHZ002-005-008-009-011-012-014-222200-
NEW HAMPSHIRE

CITY           SKY/WX    TMP DP  RH WIND       PRES   REMARKS
PORTSMOUTH     CLOUDY    67  59  74 E7        30.10S
ROCHESTER      CLOUDY    66  57  72 E5        30.12S
NASHUA         CLOUDY    69  61  76 SE6       30.10S
MANCHESTER     CLOUDY    69  60  73 E7        30.09S
CONCORD        CLOUDY    67  58  72 E3        30.11S
LACONIA        CLOUDY    66  57  72 E5        30.11S
PLYMOUTH       DRIZZLE   65  65  99 CALM      30.12S
BERLIN         CLOUDY    69  58  67 CALM      30.14S
WHITEFIELD     CLOUDY    67  58  72 CALM      30.13S
JAFFREY        CLOUDY    64  62  93 CALM      30.12S
LEBANON        LGT RAIN  65  61  87 E3        30.11S FOG
MT WASHINGTON  DRZL/FOG  45  45 100 E14         N/A  VSB 0
$$

VTZ005-007-008-222200-
VERMONT

CITY           SKY/WX    TMP DP  RH WIND       PRES   REMARKS
ST JOHNSBURY     N/A     64  62  93 MISG      30.11S
MONTPELIER     LGT RAIN  62  61  96 E5        30.16S
BURLINGTON     LGT RAIN  66  61  84 CALM      30.10R
$$

MAZ007-012-024-CTZ003-RIZ002-NYZ038-NYZ072-222200-
SOUTHERN NEW ENGLAND AND NY

CITY           SKY/WX    TMP DP  RH WIND       PRES   REMARKS
BOSTON         PTSUNNY   69  61  75 E12       30.09S
WORCESTER      CLOUDY    67  58  72 E7        30.09F
NANTUCKET      SUNNY     67  60  78 NE13G22   30.04S
PROVIDENCE     PTSUNNY   73  59  61 NE12      30.05F
HARTFORD       CLOUDY    70  62  76 N6        30.05F
ALBANY         CLOUDY    67  63  87 CALM      30.06S
NEW YORK CITY  LGT RAIN  69  60  73 SE9       30.03R
$$

ANZ081-ANZ082-ANZ150-NHZ014-MEZ023>029-222200-
COASTAL MARINE OBSERVATIONS

STATION/POSITION TIME  TEMP    WIND        PRES    WAVE
                       AIR SEA DIR/SP/G            HT/PER
                 (UTC) (F)     (DEG/KT/KT) (MB)    (FT/S)
MATINICUS ROCK   2000           90/ 10/ 11 1019.8S
PORTLAND WX BUOY 2050   61 61  100/  6/  8 1020.0S   2/ 4
WELLS            2000   64 63  100/  5/  7 1019.2F
ISLE OF SHOALS   2000   63      50/ 12/ 13 1019.0F
JEFFREYS LEDGE   2021      67                N/A     3/ 7
CASHES LEDGE BUO 2050   64 68              1018.9F   4/ 7
$$

.............KEY..............
   WCI - WIND CHILL
   TC  - TEMPERATURE IN CELSIUS
   VSB - VISIBILITY IN MILES
   HX  - HEAT INDEX
   FAIR- INDICATES FEW OR NO CLOUDS BELOW 12,000 FT, WITH NO
         SIGNIFICANT WEATHER AND/OR OBSTRUCTIONS TO VISIBILITY.




USA.gov is the U.S. government's official web portal to all federal, state and local government web resources and services.